Content
SEND FEEDBACK

Daily
Averages
Monthly
Summary
United States of America

STATEN ISLAND, NEW YORK


Home > North America > United States > New York
Elevation: 152 feet     Latitude: 40 35N     Longitude: 074 09W

WEATHER
 
SELECT A DAY
Number of Records: 192,597;   Date Range: 1/1/95 - 10/30/14
 
SHARE

PRINT THIS DATA

[ ← Previous Day ]
WEATHER ALMANAC - SEPTEMBER 15, 2013
[ Next Day → ]
[ °C ]   °F
Weather ElementAverageHighLow
Temperature62.6 °F73 °F (3:51 pm)48.9 °F (5:51 am)
Dewpoint45.4 °F53.1 °F (11:51 pm)41 °F (3:51 pm)
Humidity56.2 %83 % (5:51 am)31 % (3:51 pm)
Barometer30.15 in30.22 in (8:51 am)30.09 in (6:51 pm)
Wind Speed6 mph10.4 mph (6:51 pm)
Wind Gust17.3 mph (11:51 am)
Weather ElementAverage
Visibility10 mi
Wind DirectionSW (230.4 °)

Weather ElementTotal
Precipitation---
Heating Degree Days4.1 (Base 65)
Growing Degree Days11 (Base 50)
Averaged from 23 records on September 15, 2013
WEATHER CONDITIONS BREAKOUT
WIND DIRECTION BREAKOUT
WEATHER BY HOUR - SEPTEMBER 15, 2013
[ °C ]   °F
Local TimeTemperatureDewpointHumidityBarometerVisibilityWind DirectionWind SpeedGust SpeedPrecipitationEventsConditions
1:51 AM54.0 °F44.1 °F69 %30.14 in10.0 miWSW (250°)3.5 mphClear
2:51 AM51.1 °F44.1 °F77 %30.15 in10.0 miWSW (240°)4.6 mphClear
3:51 AM51.1 °F45.0 °F80 %30.16 in10.0 miWest (280°)4.6 mphClear
4:51 AM50.0 °F44.1 °F80 %30.16 in10.0 miWest (270°)9.2 mphClear
5:51 AM48.9 °F44.1 °F83 %30.18 in10.0 miWest (280°)5.8 mphClear
6:51 AM50.0 °F43.0 °F77 %30.19 in10.0 miWest (270°)3.5 mphScattered Clouds
7:51 AM55.0 °F44.1 °F67 %30.20 in10.0 miWNW (300°)3.5 mphScattered Clouds
8:51 AM57.9 °F45.0 °F62 %30.22 in10.0 miWest (270°)3.5 mphScattered Clouds
9:51 AM62.1 °F45.0 °F53 %30.22 in10.0 miWest (260°)5.8 mphMostly Cloudy
10:51 AM66.0 °F44.1 °F45 %30.22 in10.0 miWest (280°)6.9 mphMostly Cloudy
11:51 AM69.1 °F43.0 °F39 %30.20 in10.0 miWNW (300°)8.1 mph17.3 mphMostly Cloudy
12:51 PM70.0 °F44.1 °F39 %30.18 in10.0 miVariable3.5 mphMostly Cloudy
1:51 PM71.1 °F45.0 °F39 %30.16 in10.0 miSW (230°)8.1 mphMostly Cloudy
2:51 PM71.1 °F42.1 °F35 %30.14 in10.0 miVariable3.5 mphMostly Cloudy
3:51 PM73.0 °F41.0 °F31 %30.12 in10.0 miNW (310°)6.9 mphMostly Cloudy
4:51 PM73.0 °F42.1 °F33 %30.11 in10.0 miWSW (250°)9.2 mphMostly Cloudy
5:51 PM70.0 °F46.0 °F42 %30.10 in10.0 miSW (220°)5.8 mphMostly Cloudy
6:51 PM69.1 °F46.0 °F44 %30.09 in10.0 miWSW (240°)10.4 mphMostly Cloudy
7:51 PM68.0 °F46.9 °F47 %30.10 in10.0 miSW (230°)8.1 mphMostly Cloudy
8:51 PM66.9 °F50.0 °F54 %30.10 in10.0 miSouth (190°)4.6 mphMostly Cloudy
9:51 PM64.9 °F51.1 °F61 %30.10 in10.0 miSSW (200°)4.6 mphMostly Cloudy
10:51 PM64.0 °F52.0 °F65 %30.11 in10.0 miSSW (210°)6.9 mphMostly Cloudy
11:51 PM63.0 °F53.1 °F70 %30.11 in10.0 miSW (220°)6.9 mphMostly Cloudy
Hourly data recorded from KEWR, located miles away from Staten Island, New York







STORIES FROM OUR PARTNERS